Weather in Severobaykalsk

Russia / Republic of Buryatia     55°38′09″N   109°20′08″E
temp.,
°C
wind,
m/s
gust,
m/s
humid.,
%
clouds,
%
prec.,
mm/h
press.,
hPa
HPBL,
m
18 may, tue
tue1823:00−1wnw225355 0.0 100833
02:00−3nw33535 0.0 100945
05:00−5wnw44560 0.0 101071
08:000wnw48394 0.0 10101769
11:00+2wnw483697 0.0 10092408
14:00+4sw173793 0.1 10072109
17:00+1s236299 0.5 1006865
20:000nne117868 1.6 1005179
19 may, wed
wed1923:00−3nnw2290100 0.0 100537
02:00−4nw3291100 0.0 100439
05:00−4nw337548 0.0 100345
08:00+3nw25371 0.0 10011574
11:00+4nw45366 0.0 10031933
14:00+5nw353425 0.0 10041898
17:00+6nw153091 0.0 10042115
20:00+3s1144100 0.0 100518
20 may, thu
thu2023:00−1nnw3355100 0.0 100732
02:00−2nnw3362100 0.0 100743
05:00−2nnw2262100 0.0 100742
08:00+3nne1244100 0.0 1006587
11:00+7e1133100 0.0 10061332
14:00+9ese11316 0.0 10051641
17:00+9sse122799 0.0 10051576
20:00+6nw1141100 0.0 100511
21 may, fri
fri2123:00+4nnw2252100 0.0 100633
02:00+3nnw2357100 0.1 100564
05:00+3n1161100 0.3 100536
08:00+4e1251100 0.4 1004168
11:00+5ene2365100 0.2 1004910
14:00+3se1294100 1.9 1006307
17:00+3ene1296100 1.3 1005297
20:00+3nnw1397100 2.4 1005222
22 may, sat
sat2223:00+3n249799 0.8 1003273
02:00+2nnw1296100 1.6 1003136
05:00+2nnw1397100 1.8 1002179
08:00+4nw2373100 1.9 1001734
11:00+7nnw3758100 0.1 10001504
14:00+7nw4855100 0.1 10011493
17:00+6nnw4964100 0.1 10011335
20:00+4nnw3773100 0.3 1002550